Home > Weather > Caen > Past weeks

Flag for France Past Weather in Caen, Lower Normandy, France — Yesterday and Last 2 Weeks

Now
68 °F

Mostly cloudy.


Feels Like: 68 °F
Forecast: 60 / 70 °F
Wind: 13 mph from West

Location: Caen Airport

Current Time: Jul 27, 2016 at 7:17:15 PM

Latest Report: Jul 27, 2016 at 6:30 PM


Visibility: N/A

Pressure: 30.07 "Hg

Humidity: 83%

Dew Point: 63 °F

Location of CaenLocation

Past Weather in Caen — Graph

°F

Caen Temperature Yesterday

Maximum temperature yesterday: 68 °F (at 4:00 PM)
Minimum temperature yesterday: 54 °F (at 1:00 AM)
Average temperature yesterday: 62 °F

High & Low Weather Summary for the Past Weeks

 TemperatureHumidityPressure
High97 °F (Jul 19, 4:00 PM)100% (Jul 14, 6:30 AM)30.39 "Hg (Jul 14, 6:30 AM)
Low48 °F (Jul 15, 1:30 AM)22% (Jul 19, 6:00 PM)29.80 "Hg (Jul 20, 2:30 AM)
Average65 °F74%30.15 "Hg
* Reported Jul 12 6:00 PM — Jul 27 6:00 PM, Caen, Weather by CustomWeather, © 2016

Note: Actual official high and low records may vary slightly from our data, if they occured in-between our weather recording intervals... More about our weather records

Advertising

Caen Weather History for the Previous 24 Hours

Scroll right to see more
 ConditionsComfort  
Time TempWeatherWind HumidityBarometerVisibility
6:00 PM
Wed, Jul 27
70 °FMore clouds than sun.14 mph78%30.07 "HgN/A
5:30 PM68 °FCloudy.13 mph83%30.07 "HgN/A
5:00 PM70 °FOvercast.14 mph78%30.07 "HgN/A
4:30 PM70 °FMostly cloudy.15 mph78%30.07 "HgN/A
4:00 PM70 °FOvercast.14 mph78%30.07 "HgN/A
3:30 PM70 °FOvercast.15 mph78%30.09 "HgN/A
3:00 PM70 °FOvercast.15 mph78%30.09 "HgN/A
2:30 PM70 °FOvercast.14 mph73%30.09 "HgN/A
2:00 PM68 °FOvercast.14 mph78%30.09 "HgN/A
1:30 PM68 °FOvercast.13 mph73%30.09 "HgN/A
1:00 PM66 °FOvercast.16 mph78%30.09 "HgN/A
12:30 PM66 °FOvercast.14 mph78%30.09 "HgN/A
12:00 PM66 °FOvercast.15 mph78%30.09 "HgN/A
11:30 AM68 °FOvercast.16 mph69%30.09 "HgN/A
11:00 AM66 °FMostly cloudy.15 mph73%30.09 "HgN/A
10:30 AM68 °FPassing clouds.17 mph69%30.09 "HgN/A
10:00 AM66 °FScattered clouds.15 mph73%30.09 "HgN/A
9:30 AM63 °FSunny.12 mph83%30.09 "Hg10 mi
9:00 AM61 °FSunny.9 mph88%30.09 "Hg10 mi
8:30 AM61 °FPassing clouds.8 mph88%30.12 "HgN/A
8:00 AM61 °FSunny.7 mph88%30.09 "Hg10 mi
7:30 AM59 °FPartly sunny.7 mph94%30.12 "HgN/A
7:00 AM59 °FClear.7 mph88%30.12 "Hg10 mi
6:30 AM57 °FClear.7 mph94%30.12 "Hg10 mi
6:00 AM57 °FClear.6 mph94%30.12 "Hg10 mi
5:30 AM57 °FClear.5 mph94%30.12 "Hg10 mi
5:00 AM57 °FClear.5 mph88%30.12 "Hg10 mi
4:30 AM57 °FClear.5 mph88%30.15 "Hg10 mi
4:00 AM57 °FClear.6 mph88%30.15 "Hg10 mi
3:30 AM57 °FClear.5 mph88%30.15 "Hg10 mi
3:00 AM57 °FClear.5 mph88%30.15 "Hg10 mi
2:30 AM57 °FClear.7 mph94%30.15 "Hg10 mi
2:00 AM59 °FClear.7 mph88%30.15 "Hg10 mi
1:30 AM59 °FClear.7 mph88%30.18 "Hg10 mi
1:00 AM59 °FPassing clouds.6 mph88%30.18 "HgN/A
12:30 AM61 °FOvercast.5 mph83%30.18 "HgN/A
12:00 AM63 °FOvercast.7 mph77%30.18 "HgN/A
11:30 PM
Tue, Jul 26
63 °FOvercast.8 mph77%30.18 "HgN/A
11:00 PM63 °FOvercast.8 mph77%30.18 "HgN/A
10:30 PM63 °FOvercast.8 mph77%30.18 "HgN/A
10:00 PM63 °FOvercast.8 mph77%30.18 "HgN/A
9:30 PM64 °FOvercast.7 mph73%30.18 "HgN/A
9:00 PM64 °FOvercast.9 mph73%30.18 "HgN/A
8:30 PM66 °FOvercast.9 mph68%30.18 "HgN/A
8:00 PM66 °FMore clouds than sun.9 mph68%30.18 "HgN/A
7:30 PM66 °FPartly sunny.7 mph68%30.18 "HgN/A
7:00 PM68 °FOvercast.8 mph64%30.18 "HgN/A
Weather by CustomWeather, © 2016

See weather overviewHow to use our weather pages